Time,TemperatureF,DewpointF,PressureIn,WindDirection,WindDirectionDegrees,WindSpeedMPH,WindSpeedGustMPH,Humidity,HourlyPrecipIn,Conditions,Clouds,dailyrainin,SoftwareType,DateUTC
2013-01-12 00:00:00,40.5,39.7,30.09,NE,55,0.0,0.0,97,0.00,,,0.37,Wunderground v.1.15,2013-01-12 05:00:00,
2013-01-12 00:10:00,40.6,39.8,30.09,NE,55,0.0,0.0,97,0.00,,,0.01,Wunderground v.1.15,2013-01-12 05:10:00,
2013-01-12 00:20:00,40.6,39.8,30.08,NE,55,0.0,0.0,97,0.00,,,0.01,Wunderground v.1.15,2013-01-12 05:20:00,
2013-01-12 00:26:00,40.5,40.0,30.08,NE,55,0.0,1.0,97,0.02,,,0.01,weatherlink.com 1.10,2013-01-12 05:26:00,
2013-01-12 00:40:00,41.1,40.3,30.08,NE,46,1.0,1.0,97,0.00,,,0.01,Wunderground v.1.15,2013-01-12 05:40:00,
2013-01-12 00:50:00,41.1,40.3,30.08,NE,46,0.0,0.0,97,0.00,,,0.01,Wunderground v.1.15,2013-01-12 05:50:00,
2013-01-12 00:56:00,41.3,41.0,30.08,NE,46,0.0,2.0,97,0.02,,,0.02,weatherlink.com 1.10,2013-01-12 05:56:00,
2013-01-12 01:10:00,41.7,40.9,30.08,NNE,19,0.0,0.0,97,0.00,,,0.02,Wunderground v.1.15,2013-01-12 06:10:00,
2013-01-12 01:20:00,41.9,41.1,30.08,NNE,19,0.0,0.0,97,0.00,,,0.02,Wunderground v.1.15,2013-01-12 06:20:00,
2013-01-12 01:25:00,41.9,41.0,30.08,NNE,19,0.0,2.0,97,0.01,,,0.02,weatherlink.com 1.10,2013-01-12 06:25:00,
2013-01-12 01:30:00,42.0,41.2,30.08,NNE,19,0.0,0.0,97,0.00,,,0.02,Wunderground v.1.15,2013-01-12 06:30:00,
2013-01-12 01:40:00,42.2,41.4,30.08,NNE,22,1.0,1.0,97,0.00,,,0.02,Wunderground v.1.15,2013-01-12 06:40:00,
2013-01-12 01:50:00,42.3,41.5,30.09,NNE,22,0.0,0.0,97,0.00,,,0.03,Wunderground v.1.15,2013-01-12 06:50:00,
2013-01-12 01:56:00,42.4,42.0,30.09,NNE,22,0.0,3.0,97,0.01,,,0.03,weatherlink.com 1.10,2013-01-12 06:56:00,
2013-01-12 02:10:00,42.5,41.7,30.08,NNE,27,0.0,0.0,97,0.00,,,0.03,Wunderground v.1.15,2013-01-12 07:10:00,
2013-01-12 02:20:00,42.6,41.8,30.08,NNE,27,1.0,2.0,97,0.00,,,0.03,Wunderground v.1.15,2013-01-12 07:20:00,
2013-01-12 02:27:00,42.7,42.0,30.09,NNE,31,1.0,3.0,97,0.01,,,0.03,weatherlink.com 1.10,2013-01-12 07:27:00,
2013-01-12 02:40:00,42.9,42.1,30.09,NNE,22,1.0,1.0,97,0.00,,,0.03,Wunderground v.1.15,2013-01-12 07:40:00,
2013-01-12 02:50:00,42.9,42.1,30.09,NNE,25,1.0,1.0,97,0.00,,,0.03,Wunderground v.1.15,2013-01-12 07:50:00,
2013-01-12 02:56:00,42.9,42.0,30.09,NNE,30,2.0,4.0,97,0.00,,,0.03,weatherlink.com 1.10,2013-01-12 07:56:00,
2013-01-12 03:10:00,43.0,42.2,30.09,NE,37,2.0,2.0,97,0.00,,,0.03,Wunderground v.1.15,2013-01-12 08:10:00,
2013-01-12 03:20:00,43.0,42.2,30.09,NNE,33,3.0,3.0,97,0.00,,,0.03,Wunderground v.1.15,2013-01-12 08:20:00,
2013-01-12 03:26:00,43.0,42.0,30.09,NNE,29,0.0,5.0,97,0.00,,,0.03,weatherlink.com 1.10,2013-01-12 08:26:00,
2013-01-12 03:40:00,43.0,42.2,30.08,North,5,1.0,3.0,97,0.00,,,0.03,Wunderground v.1.15,2013-01-12 08:40:00,
2013-01-12 03:50:00,42.9,42.1,30.07,NE,44,3.0,4.0,97,0.00,,,0.03,Wunderground v.1.15,2013-01-12 08:50:00,
2013-01-12 03:58:00,42.9,42.0,30.08,NNE,24,3.0,5.0,97,0.00,,,0.03,weatherlink.com 1.10,2013-01-12 08:58:00,
2013-01-12 04:10:00,42.8,42.0,30.08,NE,45,3.0,3.0,97,0.00,,,0.03,Wunderground v.1.15,2013-01-12 09:10:00,
2013-01-12 04:20:00,42.9,42.1,30.07,NE,46,2.0,2.0,97,0.00,,,0.03,Wunderground v.1.15,2013-01-12 09:20:00,
2013-01-12 04:27:00,42.8,42.0,30.07,NE,49,0.0,5.0,97,0.00,,,0.03,weatherlink.com 1.10,2013-01-12 09:27:00,
2013-01-12 04:40:00,42.8,42.0,30.07,NNE,26,3.0,3.0,97,0.00,,,0.03,Wunderground v.1.15,2013-01-12 09:40:00,
2013-01-12 04:50:00,42.7,41.9,30.06,NE,52,3.0,4.0,97,0.00,,,0.03,Wunderground v.1.15,2013-01-12 09:50:00,
2013-01-12 04:57:00,42.7,42.0,30.06,NE,42,3.0,6.0,97,0.00,,,0.03,weatherlink.com 1.10,2013-01-12 09:57:00,
2013-01-12 05:10:00,42.7,41.9,30.08,NNE,22,3.0,4.0,97,0.00,,,0.03,Wunderground v.1.15,2013-01-12 10:10:00,
2013-01-12 05:20:00,42.7,41.9,30.08,NE,36,2.0,2.0,97,0.00,,,0.03,Wunderground v.1.15,2013-01-12 10:20:00,
2013-01-12 05:28:00,42.6,42.0,30.08,NE,38,3.0,4.0,97,0.00,,,0.03,weatherlink.com 1.10,2013-01-12 10:28:00,
2013-01-12 05:40:00,42.6,41.8,30.09,NE,37,0.0,0.0,97,0.00,,,0.03,Wunderground v.1.15,2013-01-12 10:40:00,
2013-01-12 05:50:00,42.7,41.9,30.10,North,355,0.0,0.0,97,0.00,,,0.03,Wunderground v.1.15,2013-01-12 10:50:00,
2013-01-12 05:58:00,42.7,42.0,30.10,North,5,0.0,3.0,97,0.00,,,0.03,weatherlink.com 1.10,2013-01-12 10:58:00,
2013-01-12 06:10:00,42.7,41.9,30.09,North,9,1.0,1.0,97,0.00,,,0.03,Wunderground v.1.15,2013-01-12 11:10:00,
2013-01-12 06:20:00,42.6,41.8,30.10,North,9,0.0,0.0,97,0.00,,,0.03,Wunderground v.1.15,2013-01-12 11:20:00,
2013-01-12 06:28:00,42.6,42.0,30.10,North,10,2.0,2.0,97,0.00,,,0.03,weatherlink.com 1.10,2013-01-12 11:28:00,
2013-01-12 06:40:00,42.7,41.9,30.10,NNE,33,1.0,1.0,97,0.00,,,0.03,Wunderground v.1.15,2013-01-12 11:40:00,
2013-01-12 06:50:00,42.7,41.9,30.10,NNE,32,1.0,1.0,97,0.00,,,0.03,Wunderground v.1.15,2013-01-12 11:50:00,
2013-01-12 06:59:00,42.7,42.0,30.10,NNE,32,0.0,3.0,97,0.00,,,0.03,weatherlink.com 1.10,2013-01-12 11:59:00,
2013-01-12 07:10:00,42.7,41.9,30.11,NE,40,1.0,1.0,97,0.00,,,0.03,Wunderground v.1.15,2013-01-12 12:10:00,
2013-01-12 07:20:00,42.7,41.9,30.11,NE,39,1.0,2.0,97,0.00,,,0.03,Wunderground v.1.15,2013-01-12 12:20:00,
2013-01-12 07:29:00,42.7,42.0,30.11,NNE,29,1.0,3.0,97,0.00,,,0.03,weatherlink.com 1.10,2013-01-12 12:29:00,
2013-01-12 07:40:00,42.8,42.0,30.13,NNE,26,0.0,0.0,97,0.00,,,0.03,Wunderground v.1.15,2013-01-12 12:40:00,
2013-01-12 07:50:00,42.8,42.0,30.12,NE,40,0.0,1.0,97,0.00,,,0.03,Wunderground v.1.15,2013-01-12 12:50:00,
2013-01-12 07:59:00,43.0,42.0,30.14,North,360,0.0,3.0,97,0.00,,,0.03,weatherlink.com 1.10,2013-01-12 12:59:00,
2013-01-12 08:10:00,43.0,42.2,30.14,NE,44,1.0,3.0,97,0.00,,,0.03,Wunderground v.1.15,2013-01-12 13:10:00,
2013-01-12 08:20:00,43.1,42.3,30.13,NNE,28,2.0,2.0,97,0.00,,,0.03,Wunderground v.1.15,2013-01-12 13:20:00,
2013-01-12 08:29:00,43.1,42.0,30.13,NE,46,3.0,5.0,97,0.00,,,0.03,weatherlink.com 1.10,2013-01-12 13:29:00,
2013-01-12 08:40:00,43.1,42.3,30.13,NE,46,1.0,2.0,97,0.00,,,0.03,Wunderground v.1.15,2013-01-12 13:40:00,
2013-01-12 08:50:00,43.1,42.3,30.13,NE,36,3.0,3.0,97,0.00,,,0.03,Wunderground v.1.15,2013-01-12 13:50:00,
2013-01-12 08:59:00,43.1,42.0,30.14,NNE,33,4.0,4.0,97,0.00,,,0.03,weatherlink.com 1.10,2013-01-12 13:59:00,
2013-01-12 09:10:00,43.1,42.3,30.13,NE,36,1.0,2.0,97,0.00,,,0.03,Wunderground v.1.15,2013-01-12 14:10:00,
2013-01-12 09:20:00,43.1,42.3,30.14,NNE,15,1.0,3.0,97,0.00,,,0.03,Wunderground v.1.15,2013-01-12 14:20:00,
2013-01-12 09:29:00,43.1,42.0,30.14,NNE,19,0.0,3.0,97,0.00,,,0.03,weatherlink.com 1.10,2013-01-12 14:29:00,
2013-01-12 09:40:00,43.2,42.4,30.13,NNE,24,1.0,2.0,97,0.00,,,0.03,Wunderground v.1.15,2013-01-12 14:40:00,
2013-01-12 09:50:00,43.4,42.6,30.13,NNE,24,0.0,3.0,97,0.00,,,0.03,Wunderground v.1.15,2013-01-12 14:50:00,
2013-01-12 09:59:00,43.4,43.0,30.14,NE,38,0.0,5.0,97,0.00,,,0.03,weatherlink.com 1.10,2013-01-12 14:59:00,
2013-01-12 10:10:00,43.6,42.8,30.14,NNE,32,1.0,1.0,97,0.00,,,0.03,Wunderground v.1.15,2013-01-12 15:10:00,
2013-01-12 10:20:00,43.7,42.9,30.14,NNE,30,1.0,1.0,97,0.00,,,0.03,Wunderground v.1.15,2013-01-12 15:20:00,
2013-01-12 10:29:00,43.9,43.0,30.14,NNE,32,0.0,3.0,97,0.00,,,0.03,weatherlink.com 1.10,2013-01-12 15:29:00,
2013-01-12 10:40:00,44.0,43.2,30.14,NNE,33,0.0,0.0,97,0.00,,,0.03,Wunderground v.1.15,2013-01-12 15:40:00,
2013-01-12 10:45:00,44.1,43.0,30.14,NNE,33,0.0,1.0,97,0.00,,,0.03,weatherlink.com 1.10,2013-01-12 15:45:00,
2013-01-12 10:59:00,44.2,43.0,30.14,NNE,33,0.0,1.0,97,0.00,,,0.03,weatherlink.com 1.10,2013-01-12 15:59:00,
2013-01-12 11:10:00,44.2,43.4,30.13,NNE,33,0.0,0.0,97,0.00,,,0.03,Wunderground v.1.15,2013-01-12 16:10:00,
2013-01-12 11:15:00,44.3,44.0,30.13,NNE,33,0.0,0.0,97,0.00,,,0.03,weatherlink.com 1.10,2013-01-12 16:15:00,
2013-01-12 11:30:00,44.3,43.5,30.13,NNE,33,0.0,0.0,97,0.00,,,0.03,Wunderground v.1.15,2013-01-12 16:30:00,
2013-01-12 11:40:00,44.4,43.6,30.13,NNE,33,0.0,0.0,97,0.00,,,0.03,Wunderground v.1.15,2013-01-12 16:40:00,
2013-01-12 11:46:00,44.5,44.0,30.13,NNE,33,0.0,1.0,97,0.00,,,0.03,weatherlink.com 1.10,2013-01-12 16:46:00,
2013-01-12 12:00:00,44.8,44.0,30.12,NNE,33,0.0,0.0,97,0.00,,,0.03,Wunderground v.1.15,2013-01-12 17:00:00,
2013-01-12 12:10:00,44.8,44.0,30.12,NNE,33,0.0,0.0,97,0.00,,,0.03,Wunderground v.1.15,2013-01-12 17:10:00,
2013-01-12 12:16:00,44.7,44.0,30.11,NNE,33,0.0,0.0,97,0.00,,,0.03,weatherlink.com 1.10,2013-01-12 17:16:00,
2013-01-12 12:30:00,44.6,43.8,30.11,East,96,1.0,1.0,97,0.00,,,0.03,Wunderground v.1.15,2013-01-12 17:30:00,
2013-01-12 12:40:00,44.6,43.8,30.11,East,95,0.0,0.0,97,0.00,,,0.03,Wunderground v.1.15,2013-01-12 17:40:00,
2013-01-12 12:45:00,44.6,44.0,30.12,East,95,0.0,1.0,97,0.00,,,0.03,weatherlink.com 1.10,2013-01-12 17:45:00,
2013-01-12 13:00:00,44.7,43.9,30.12,East,98,0.0,0.0,97,0.00,,,0.03,Wunderground v.1.15,2013-01-12 18:00:00,
2013-01-12 13:10:00,45.0,44.2,30.12,East,98,0.0,0.0,97,0.00,,,0.03,Wunderground v.1.15,2013-01-12 18:10:00,
2013-01-12 13:16:00,44.9,44.0,30.13,East,98,0.0,1.0,97,0.00,,,0.03,weatherlink.com 1.10,2013-01-12 18:16:00,
2013-01-12 13:31:00,45.2,44.0,30.13,East,98,1.0,1.0,97,0.00,,,0.03,weatherlink.com 1.10,2013-01-12 18:31:00,
2013-01-12 13:46:00,45.3,44.0,30.13,South,180,0.0,1.0,96,0.00,,,0.03,weatherlink.com 1.10,2013-01-12 18:46:00,
2013-01-12 14:01:00,45.4,44.0,30.13,South,188,0.0,1.0,96,0.00,,,0.03,weatherlink.com 1.10,2013-01-12 19:01:00,
2013-01-12 14:16:00,45.2,44.0,30.12,South,188,0.0,0.0,96,0.00,,,0.03,weatherlink.com 1.10,2013-01-12 19:16:00,
2013-01-12 14:31:00,45.2,44.0,30.12,South,188,0.0,1.0,96,0.00,,,0.03,weatherlink.com 1.10,2013-01-12 19:31:00,
2013-01-12 14:46:00,45.3,44.0,30.12,South,188,0.0,1.0,96,0.00,,,0.03,weatherlink.com 1.10,2013-01-12 19:46:00,
2013-01-12 15:01:00,45.2,44.0,30.12,South,189,0.0,2.0,96,0.00,,,0.03,weatherlink.com 1.10,2013-01-12 20:01:00,
2013-01-12 15:16:00,45.2,44.0,30.12,South,189,0.0,0.0,96,0.00,,,0.03,weatherlink.com 1.10,2013-01-12 20:16:00,
2013-01-12 15:31:00,45.2,44.0,30.13,South,189,0.0,1.0,96,0.00,,,0.03,weatherlink.com 1.10,2013-01-12 20:31:00,
2013-01-12 15:46:00,45.2,44.0,30.12,South,189,0.0,1.0,96,0.00,,,0.03,weatherlink.com 1.10,2013-01-12 20:46:00,
2013-01-12 16:01:00,45.2,44.0,30.11,South,189,0.0,1.0,96,0.00,,,0.03,weatherlink.com 1.10,2013-01-12 21:01:00,
2013-01-12 16:16:00,45.1,44.0,30.13,South,189,0.0,0.0,96,0.00,,,0.03,weatherlink.com 1.10,2013-01-12 21:16:00,
2013-01-12 16:31:00,45.0,44.0,30.13,South,189,0.0,2.0,96,0.00,,,0.03,weatherlink.com 1.10,2013-01-12 21:31:00,
2013-01-12 16:46:00,45.0,44.0,30.14,South,189,0.0,0.0,96,0.00,,,0.03,weatherlink.com 1.10,2013-01-12 21:46:00,
2013-01-12 17:01:00,45.0,44.0,30.15,South,189,0.0,0.0,96,0.00,,,0.03,weatherlink.com 1.10,2013-01-12 22:01:00,
2013-01-12 17:16:00,44.8,44.0,30.16,South,189,0.0,0.0,96,0.00,,,0.03,weatherlink.com 1.10,2013-01-12 22:16:00,
2013-01-12 17:31:00,44.7,44.0,30.15,South,189,0.0,0.0,96,0.00,,,0.03,weatherlink.com 1.10,2013-01-12 22:31:00,
2013-01-12 17:46:00,44.6,44.0,30.15,South,189,0.0,2.0,97,0.00,,,0.03,weatherlink.com 1.10,2013-01-12 22:46:00,
2013-01-12 18:01:00,44.4,44.0,30.15,South,189,0.0,1.0,97,0.00,,,0.03,weatherlink.com 1.10,2013-01-12 23:01:00,
2013-01-12 18:16:00,44.3,44.0,30.14,South,189,0.0,1.0,97,0.00,,,0.03,weatherlink.com 1.10,2013-01-12 23:16:00,
2013-01-12 18:31:00,44.2,43.0,30.14,South,189,0.0,1.0,97,0.00,,,0.03,weatherlink.com 1.10,2013-01-12 23:31:00,
2013-01-12 18:46:00,44.0,43.0,30.13,South,189,0.0,0.0,97,0.00,,,0.03,weatherlink.com 1.10,2013-01-12 23:46:00,
2013-01-12 19:01:00,43.9,43.0,30.13,South,189,0.0,1.0,97,0.00,,,0.03,weatherlink.com 1.10,2013-01-13 00:01:00,
2013-01-12 19:16:00,43.8,43.0,30.13,South,189,0.0,0.0,97,0.00,,,0.03,weatherlink.com 1.10,2013-01-13 00:16:00,
2013-01-12 19:31:00,43.8,43.0,30.14,South,189,0.0,0.0,97,0.00,,,0.03,weatherlink.com 1.10,2013-01-13 00:31:00,
2013-01-12 19:46:00,43.8,43.0,30.14,South,189,0.0,2.0,97,0.00,,,0.03,weatherlink.com 1.10,2013-01-13 00:46:00,
2013-01-12 20:01:00,43.7,43.0,30.14,South,189,0.0,2.0,97,0.00,,,0.03,weatherlink.com 1.10,2013-01-13 01:01:00,
2013-01-12 20:16:00,43.7,43.0,30.14,South,189,2.0,2.0,97,0.00,,,0.03,weatherlink.com 1.10,2013-01-13 01:16:00,
2013-01-12 20:31:00,43.6,43.0,30.13,South,189,0.0,1.0,97,0.00,,,0.03,weatherlink.com 1.10,2013-01-13 01:31:00,
2013-01-12 20:46:00,43.5,43.0,30.12,South,189,0.0,2.0,97,0.00,,,0.03,weatherlink.com 1.10,2013-01-13 01:46:00,
2013-01-12 21:01:00,43.5,43.0,30.13,South,189,0.0,1.0,97,0.00,,,0.03,weatherlink.com 1.10,2013-01-13 02:01:00,
2013-01-12 21:16:00,43.5,43.0,30.12,South,190,0.0,3.0,97,0.00,,,0.03,weatherlink.com 1.10,2013-01-13 02:16:00,
2013-01-12 21:31:00,43.5,43.0,30.12,South,190,0.0,1.0,97,0.00,,,0.03,weatherlink.com 1.10,2013-01-13 02:31:00,
2013-01-12 21:46:00,43.5,43.0,30.11,South,190,0.0,1.0,97,0.00,,,0.03,weatherlink.com 1.10,2013-01-13 02:46:00,
2013-01-12 22:01:00,43.4,43.0,30.12,South,190,0.0,1.0,97,0.00,,,0.03,weatherlink.com 1.10,2013-01-13 03:01:00,
2013-01-12 22:16:00,43.4,43.0,30.12,South,190,0.0,0.0,97,0.00,,,0.03,weatherlink.com 1.10,2013-01-13 03:16:00,
2013-01-12 22:31:00,43.4,43.0,30.12,South,190,0.0,0.0,98,0.00,,,0.03,weatherlink.com 1.10,2013-01-13 03:31:00,
2013-01-12 22:46:00,43.4,43.0,30.12,South,190,0.0,0.0,97,0.00,,,0.03,weatherlink.com 1.10,2013-01-13 03:46:00,
2013-01-12 23:01:00,43.4,43.0,30.11,South,190,0.0,1.0,97,0.01,,,0.04,weatherlink.com 1.10,2013-01-13 04:01:00,
2013-01-12 23:16:00,43.4,43.0,30.11,South,190,0.0,0.0,97,0.01,,,0.04,weatherlink.com 1.10,2013-01-13 04:16:00,
2013-01-12 23:31:00,43.4,43.0,30.12,South,190,0.0,0.0,97,0.01,,,0.04,weatherlink.com 1.10,2013-01-13 04:31:00,
2013-01-12 23:46:00,43.5,43.0,30.13,South,190,0.0,0.0,97,0.01,,,0.04,weatherlink.com 1.10,2013-01-13 04:46:00,